Tucson Davis Monthan, AZ

4:02 AM MST on December 12, 2019 (GMT -0700)
Davis-Monthan Air Force Base

Weather History for KDMA - November, 2019

Change the Weather History Date:

Thursday, November 21, 2019

  Actual Average Record
Temperature  
Mean Temperature 55 °F -  
Max Temperature 61 °F 71 °F 86 °F (2002)
Min Temperature 49 °F 43 °F 27 °F (1979)
Degree Days  
Heating Degree Days 10    
Growing Degree Days 5 (Base 50)    
Moisture  
Dew Point 47 °F    
Average Humidity 82    
Maximum Humidity 94    
Minimum Humidity 48    
Precipitation  
Precipitation 0.64 in - - ()
Sea Level Pressure  
Sea Level Pressure 29.86 in    
Wind  
Wind Speed 5 mph (SE)    
Max Wind Speed 21 mph    
Max Gust Speed 32 mph    
Visibility 10 miles    
Events Rain , Thunderstorm    
Averages and records for this station are not official NWS values.
T = Trace of Precipitation, MM = Missing Value Source: NWS Daily Summary

Daily Weather History Graph

Daily Weather History Graph

Search for Another Location

Airport or City:

Astronomy

Nov. 21, 2019 Rise Set
Actual Time 6:57 AM MST 5:20 PM MST
Civil Twilight 6:31 AM MST 5:46 PM MST
Nautical Twilight 6:01 AM MST 6:16 PM MST
Astronomical Twilight 5:32 AM MST 6:46 PM MST
Moon 1:23 AM MST (11/21) 2:28 PM MST (11/21)
Length of Visible Light 11h 15m
Length of Day
10h 23m
Waning Crescent, 29% of the Moon is Illuminated
Nov 21
Waning Crescent
Nov 26
New
Dec 3
First Quarter
Dec 11
Full
Dec 18
Last Quarter

Hourly Weather History & Observations

Time (MST) Temp. Dew Point Humidity Pressure Visibility Wind Dir Wind Speed Gust Speed Precip Events Conditions
12:58 AM 53.8 °F 51.3 °F 91% 29.78 in 10.0 mi Calm Calm - 0.13 in Rain Light Rain
1:53 AM 53.6 °F 50.0 °F 88% 29.78 in 7.0 mi Calm Calm - N/A   Light Drizzle
1:56 AM 53.6 °F 50.0 °F 88% 29.78 in 9.0 mi Calm Calm - N/A   Mostly Cloudy
1:58 AM 53.2 °F 50.7 °F 91% 29.78 in 9.0 mi Calm Calm - 0.05 in   Mostly Cloudy
2:04 AM 53.6 °F 50.0 °F 88% 29.78 in 10.0 mi Calm Calm - N/A   Light Drizzle
2:15 AM 53.6 °F 50.0 °F 88% 29.78 in 10.0 mi Calm Calm - N/A   Scattered Clouds
2:49 AM 53.6 °F 50.0 °F 88% 29.78 in 10.0 mi SW 8.1 mph - N/A   Drizzle
2:58 AM 54.3 °F 48.9 °F 82% 29.80 in 10.0 mi SW 9.2 mph - 0.00 in Rain Light Rain
3:01 AM 53.6 °F 50.0 °F 88% 29.80 in 10.0 mi WSW 8.1 mph - N/A   Mostly Cloudy
3:46 AM 53.6 °F 48.2 °F 82% 29.78 in 10.0 mi SW 3.5 mph - N/A   Light Drizzle
3:56 AM 53.6 °F 50.0 °F 88% 29.78 in 10.0 mi ESE 4.6 mph - N/A Rain Light Rain
3:58 AM 53.8 °F 49.5 °F 85% 29.78 in 10.0 mi SE 3.5 mph - 0.00 in Rain Light Rain
4:04 AM 53.6 °F 50.0 °F 88% 29.78 in 10.0 mi Calm Calm - N/A   Mostly Cloudy
4:08 AM 53.6 °F 50.0 °F 88% 29.80 in 10.0 mi ESE 3.5 mph - N/A Rain Light Rain
4:13 AM 53.6 °F 50.0 °F 88% 29.78 in 10.0 mi ESE 5.8 mph - N/A Rain Rain
4:29 AM 53.6 °F 50.0 °F 88% 29.76 in 10.0 mi NE 6.9 mph - N/A   Partly Cloudy
4:41 AM 53.6 °F 50.0 °F 88% 29.76 in 10.0 mi NNE 3.5 mph - N/A   Light Drizzle
4:58 AM 53.4 °F 50.2 °F 89% 29.76 in 10.0 mi ENE 5.8 mph - 0.01 in Rain Light Rain
5:13 AM 53.6 °F 50.0 °F 88% 29.76 in 9.0 mi NNE 5.8 mph - N/A Rain , Thunderstorm Thunderstorms and Rain
5:28 AM 51.8 °F 50.0 °F 94% 29.79 in 10.0 mi SE 5.8 mph - N/A Rain Heavy Rain
5:53 AM 51.8 °F 48.2 °F 88% 29.81 in 5.0 mi SSW 9.2 mph - N/A Rain Heavy Rain
5:58 AM 51.3 °F 46.2 °F 83% 29.81 in 5.0 mi SSW 17.3 mph 24.2 mph 0.29 in Rain Heavy Rain
6:14 AM 50.0 °F 46.4 °F 87% 29.82 in 10.0 mi SSE 10.4 mph - N/A   Overcast
6:15 AM 50.0 °F 46.4 °F 87% 29.82 in 10.0 mi SSE 10.4 mph - N/A Rain Light Rain
6:58 AM 49.1 °F 46.2 °F 90% 29.83 in 10.0 mi East 5.8 mph - 0.11 in Rain Light Rain
7:00 AM 50.0 °F 46.4 °F 87% 29.84 in 10.0 mi ESE 6.9 mph - N/A   Mostly Cloudy
7:01 AM 50.0 °F 46.4 °F 87% 29.84 in 10.0 mi ESE 6.9 mph - N/A   Light Drizzle
7:06 AM 50.0 °F 46.4 °F 87% 29.84 in 10.0 mi East 6.9 mph - N/A   Light Drizzle
7:13 AM 50.0 °F 46.4 °F 87% 29.84 in 10.0 mi East 8.1 mph - N/A   Scattered Clouds
7:58 AM 49.3 °F 46.2 °F 89% 29.84 in 10.0 mi East 12.7 mph - 0.00 in   Partly Cloudy
8:58 AM 51.6 °F 46.6 °F 83% 29.85 in 10.0 mi ESE 8.1 mph - N/A   Clear
9:58 AM 53.8 °F 44.2 °F 70% 29.89 in 10.0 mi SSE 9.2 mph - N/A   Scattered Clouds
10:58 AM 56.5 °F 41.9 °F 58% 29.89 in 10.0 mi SW 12.7 mph - N/A   Scattered Clouds
11:58 AM 59.5 °F 40.8 °F 50% 29.86 in 10.0 mi South 13.8 mph - N/A   Partly Cloudy
12:58 PM 61.0 °F 42.3 °F 50% 29.84 in 10.0 mi SW 9.2 mph - N/A   Partly Cloudy
1:13 PM 60.8 °F 41.0 °F 48% 29.84 in 10.0 mi West 20.7 mph 32.2 mph N/A   Overcast
1:58 PM 58.1 °F 40.6 °F 52% 29.88 in 10.0 mi WNW 13.8 mph - N/A   Mostly Cloudy
2:58 PM 55.0 °F 41.0 °F 59% 29.89 in 10.0 mi West 13.8 mph 24.2 mph N/A   Overcast
3:16 PM 55.4 °F 41.0 °F 58% 29.91 in 10.0 mi West 11.5 mph - N/A   Light Drizzle
3:39 PM 51.8 °F 44.6 °F 76% 29.92 in 10.0 mi South 8.1 mph - N/A   Overcast
3:58 PM 52.3 °F 45.3 °F 77% 29.92 in 10.0 mi South 4.6 mph - 0.01 in   Overcast
4:03 PM 51.8 °F 46.4 °F 82% 29.92 in 10.0 mi SSE 6.9 mph - N/A   Light Drizzle
4:18 PM 51.8 °F 46.4 °F 82% 29.94 in 10.0 mi SSE 9.2 mph - N/A   Overcast
4:58 PM 52.2 °F 46.6 °F 81% 29.96 in 10.0 mi ESE 11.5 mph - 0.00 in   Mostly Cloudy
5:58 PM 50.2 °F 45.0 °F 82% 29.96 in 10.0 mi ENE 8.1 mph - N/A   Clear
6:58 PM 50.2 °F 45.1 °F 83% 29.99 in 10.0 mi ENE 6.9 mph - N/A   Partly Cloudy
7:58 PM 50.4 °F 45.1 °F 82% 30.01 in 10.0 mi East 5.8 mph - N/A   Mostly Cloudy
8:20 PM 51.8 °F 44.6 °F 76% 30.03 in 10.0 mi ESE 8.1 mph - N/A Rain Light Rain
8:58 PM 50.5 °F 46.8 °F 87% 30.03 in 10.0 mi ESE 6.9 mph - 0.04 in Rain Light Rain
9:08 PM 50.0 °F 48.2 °F 94% 30.03 in 10.0 mi SSE 4.6 mph - N/A   Overcast
9:58 PM 50.7 °F 46.8 °F 86% 30.04 in 10.0 mi East 4.6 mph - 0.00 in   Scattered Clouds
10:58 PM 49.8 °F 46.9 °F 90% 30.06 in 10.0 mi Calm Calm - N/A   Mostly Cloudy
11:58 PM 50.4 °F 46.4 °F 86% 30.05 in 10.0 mi ENE 4.6 mph - N/A   Partly Cloudy